$Date,$Time,DM0201B,DM0203B,DM0205B,DM0207B,DM0209B
02/02/99,00:00:01,0,0,0,0,0
02/02/99,00:05:01,31,168,-10,510,956
02/02/99,00:10:01,22,167,-10,514,956
02/02/99,00:15:01,31,188,-10,516,956
02/02/99,00:20:01,17,175,-10,527,956
02/02/99,00:25:01,31,160,-10,549,956
02/02/99,00:30:01,22,180,-9,565,956
02/02/99,00:35:01,34,155,-9,591,956
02/02/99,00:40:01,22,172,-9,617,956
02/02/99,00:45:01,35,166,-9,654,956
02/02/99,00:50:01,39,156,-9,259,956
02/02/99,00:55:01,41,166,-9,392,956
02/02/99,01:00:01,37,167,-9,628,956
02/02/99,01:05:01,48,175,-8,609,956
02/02/99,01:10:01,55,168,-8,642,956
02/02/99,01:15:01,32,199,-8,655,956
02/02/99,01:20:01,9,184,-8,687,956
02/02/99,01:25:01,45,138,-8,804,956
02/02/99,01:30:01,38,159,-7,711,956
02/02/99,01:35:01,4,333,-7,453,956
02/02/99,01:40:01,1,249,-7,472,956
02/02/99,01:45:01,17,145,-7,418,956
02/02/99,01:50:01,7,196,-7,484,956
02/02/99,01:55:01,,,,,
02/02/99,02:00:01,,,,,
02/02/99,02:05:01,,,,,
02/02/99,02:10:01,,,,,
02/02/99,02:15:01,,,,,
02/02/99,02:20:01,,,,,
02/02/99,02:25:01,,,,,
02/02/99,02:30:01,,,,,
02/02/99,02:35:01,,,,,
02/02/99,02:40:01,,,,,
02/02/99,02:45:01,,,,,
02/02/99,02:50:01,,,,,
02/02/99,02:55:01,,,,,
02/02/99,03:00:01,,,,,
02/02/99,03:05:01,0,1,0,0,925
02/02/99,03:10:01,,,,,
02/02/99,03:15:01,,,,,
02/02/99,03:20:01,,,,,
02/02/99,03:25:01,,,,,
02/02/99,03:30:01,,,,,
02/02/99,03:35:01,38,345,-5,539,956
02/02/99,03:40:01,2,284,-5,560,956
02/02/99,03:45:01,6,346,-3,578,956
02/02/99,03:50:01,3,320,-3,602,956
02/02/99,03:55:01,22,307,-3,623,956
02/02/99,04:00:01,9,335,-3,572,956
02/02/99,04:05:01,38,320,-3,431,956
02/02/99,04:10:01,5,253,-3,576,956
02/02/99,04:15:01,31,356,-5,391,956
02/02/99,04:20:01,40,337,-5,406,956
02/02/99,04:25:01,17,342,-5,400,956
02/02/99,04:30:01,19,325,-5,362,956
02/02/99,04:35:01,12,313,-5,398,956
02/02/99,04:40:01,32,258,-5,376,956
02/02/99,04:45:01,14,336,-5,371,956
02/02/99,04:50:01,21,355,-7,361,956
02/02/99,04:55:01,17,301,-7,338,956
02/02/99,05:00:01,27,312,-7,344,956
02/02/99,05:05:01,7,335,-7,291,956
02/02/99,05:10:01,32,298,-9,289,956
02/02/99,05:15:01,49,356,-9,299,956
02/02/99,05:20:01,16,6,-9,295,956
02/02/99,05:25:01,57,360,-9,274,956
02/02/99,05:30:01,28,347,-9,264,956
02/02/99,05:35:01,42,360,-9,263,956
02/02/99,05:40:01,31,1,-9,265,956
02/02/99,05:45:01,27,343,-9,268,956
02/02/99,05:50:01,36,349,-9,253,956
02/02/99,05:55:01,4,253,-9,240,956
02/02/99,06:00:01,39,353,-9,227,956
02/02/99,06:05:01,26,14,-9,336,956
02/02/99,06:10:01,35,353,-9,244,956
02/02/99,06:15:01,21,344,-9,287,956
02/02/99,06:20:01,11,336,-9,290,956
02/02/99,06:25:01,32,335,-7,463,956
02/02/99,06:30:01,2,326,-7,466,956
02/02/99,06:35:01,28,7,-5,489,956
02/02/99,06:40:01,16,336,-3,482,956
02/02/99,06:45:01,4,336,-3,430,956
02/02/99,06:50:01,7,289,-1,443,956
02/02/99,06:55:01,23,249,-1,452,956
02/02/99,07:00:01,28,317,-1,437,956
02/02/99,07:05:01,14,287,-1,441,956
02/02/99,07:10:01,16,318,-3,452,956
02/02/99,07:15:01,18,325,-1,370,956
02/02/99,07:20:01,28,336,-3,265,956
02/02/99,07:25:01,46,332,-5,212,956
02/02/99,07:30:01,28,338,-5,177,956
02/02/99,07:35:01,31,351,-7,158,956
02/02/99,07:40:01,19,11,-7,144,956
02/02/99,07:45:01,28,328,-9,130,956
02/02/99,07:50:01,45,342,-9,122,956
02/02/99,07:55:01,24,354,-9,118,956
02/02/99,08:00:01,14,338,-11,114,956
02/02/99,08:05:01,22,10,-11,114,956
02/02/99,08:10:01,14,16,-11,110,956
02/02/99,08:15:01,14,329,-11,108,956
02/02/99,08:20:01,6,348,-11,104,956
02/02/99,08:25:01,19,338,-11,104,956
02/02/99,08:30:01,10,298,-11,102,956
02/02/99,08:35:01,2,311,-11,96,956
02/02/99,08:40:01,6,301,-11,92,956
02/02/99,08:45:01,28,314,-11,88,956
02/02/99,08:50:01,28,2,-11,86,956
02/02/99,08:55:01,17,319,-11,84,956
02/02/99,09:00:01,13,333,-11,82,956
02/02/99,09:05:01,11,321,-11,80,956
02/02/99,09:10:01,6,324,-11,74,956
02/02/99,09:15:01,6,250,-11,72,956
02/02/99,09:20:01,6,250,-11,72,956
02/02/99,09:25:01,6,250,-11,70,956
02/02/99,09:30:01,6,269,-11,70,956
02/02/99,09:35:01,6,259,-11,72,956
02/02/99,09:40:01,6,259,-11,74,956
02/02/99,09:45:01,6,259,-11,79,956
02/02/99,09:50:01,6,259,-11,83,956
02/02/99,09:55:01,6,272,-11,81,956
02/02/99,10:00:01,6,296,-11,85,956
02/02/99,10:05:01,6,244,-11,92,956
02/02/99,10:10:01,6,233,-11,96,956
02/02/99,10:15:01,11,195,-11,98,956
02/02/99,10:20:01,4,181,-11,96,956
02/02/99,10:25:01,14,198,-11,95,956
02/02/99,10:30:01,52,194,-11,86,956
02/02/99,10:35:01,5,191,-11,87,956
02/02/99,10:40:01,39,188,-11,71,956
02/02/99,10:45:01,31,211,-11,110,956
02/02/99,10:50:01,47,192,-11,81,956
02/02/99,10:55:01,68,192,-11,65,956
02/02/99,11:00:01,55,190,-11,91,958
02/02/99,11:05:01,46,184,-11,79,958
02/02/99,11:10:01,46,190,-11,95,958
02/02/99,11:15:01,5,164,-11,61,958
02/02/99,11:20:01,35,211,-11,74,958
02/02/99,11:25:01,20,183,-11,91,958
02/02/99,11:30:01,47,195,-13,89,958
02/02/99,11:35:01,11,214,-13,87,958
02/02/99,11:40:01,119,187,-13,65,958
02/02/99,11:45:01,70,196,-13,79,958
02/02/99,11:50:01,81,187,-13,77,958
02/02/99,11:55:01,57,184,-13,57,958
02/02/99,12:00:01,56,184,-13,27,958
02/02/99,12:05:01,70,197,-13,27,958
02/02/99,12:10:01,57,196,-13,25,958
02/02/99,12:15:01,85,190,-13,25,958
02/02/99,12:20:01,79,197,-13,25,958
02/02/99,12:25:01,132,183,-13,25,958
02/02/99,12:30:01,107,168,-13,25,958
02/02/99,12:35:01,113,178,-13,23,958
02/02/99,12:40:01,107,177,-13,23,958
02/02/99,12:45:01,79,169,-13,25,958
02/02/99,12:50:01,110,176,-13,23,958
02/02/99,12:55:01,118,164,-13,29,958
02/02/99,13:00:01,83,150,-13,40,958
02/02/99,13:05:01,76,152,-13,24,958
02/02/99,13:10:01,103,171,-13,24,958
02/02/99,13:15:01,130,154,-13,24,958
02/02/99,13:20:01,127,157,-13,24,958
02/02/99,13:25:01,136,168,-13,24,958
02/02/99,13:30:01,140,169,-13,24,958
02/02/99,13:35:01,140,180,-13,24,958
02/02/99,13:40:01,139,177,-13,24,958
02/02/99,13:45:01,144,177,-13,24,958
02/02/99,13:50:01,133,177,-13,24,958
02/02/99,13:55:01,124,178,-13,26,958
02/02/99,14:00:01,136,178,-13,28,958
02/02/99,14:05:01,129,178,-13,30,958
02/02/99,14:10:01,137,178,-13,34,958
02/02/99,14:15:01,165,178,-13,32,958
02/02/99,14:20:01,155,178,-13,32,958
02/02/99,14:25:01,124,178,-13,32,958
02/02/99,14:30:01,132,178,-13,34,958
02/02/99,14:35:01,113,178,-13,30,958
02/02/99,14:40:01,143,178,-13,26,958
02/02/99,14:45:01,127,176,-13,26,958
02/02/99,14:50:01,120,188,-13,26,958
02/02/99,14:55:01,128,188,-13,26,958
02/02/99,15:00:01,109,188,-13,27,958
02/02/99,15:05:01,115,178,-13,27,958
02/02/99,15:10:01,119,188,-13,27,958
02/02/99,15:15:01,118,188,-13,29,958
02/02/99,15:20:01,95,190,-13,29,958
02/02/99,15:25:01,92,180,-13,37,958
02/02/99,15:30:01,91,181,-13,29,958
02/02/99,15:35:01,97,181,-13,29,958
02/02/99,15:40:01,97,181,-13,29,958
02/02/99,15:45:01,105,181,-13,29,958
02/02/99,15:50:01,118,181,-13,33,958
02/02/99,15:55:01,115,181,-13,35,958
02/02/99,16:00:01,112,181,-13,89,958
02/02/99,16:05:01,117,181,-13,114,958
02/02/99,16:10:01,94,192,-13,107,958
02/02/99,16:15:01,93,181,-13,52,958
02/02/99,16:20:01,110,181,-13,35,958
02/02/99,16:25:01,93,181,-13,37,958
02/02/99,16:30:01,114,181,-13,41,958
02/02/99,16:35:01,125,181,-13,38,958
02/02/99,16:40:01,110,181,-13,40,958
02/02/99,16:45:01,117,178,-13,42,958
02/02/99,16:50:01,89,179,-13,61,958
02/02/99,16:55:01,87,179,-13,156,958
02/02/99,17:00:01,66,182,-13,176,958
02/02/99,17:05:01,76,182,-13,179,958
02/02/99,17:10:01,66,182,-13,181,958
02/02/99,17:15:01,65,205,-13,179,958
02/02/99,17:20:01,61,193,-13,183,958
02/02/99,17:25:01,88,190,-13,185,958
02/02/99,17:30:01,66,190,-13,187,958
02/02/99,17:35:01,60,191,-13,191,958
02/02/99,17:40:01,51,181,-13,193,958
02/02/99,17:45:01,53,191,-13,195,958
02/02/99,17:50:01,75,167,-13,199,958
02/02/99,17:55:01,50,180,-13,203,958
02/02/99,18:00:01,57,180,-13,205,958
02/02/99,18:05:01,59,180,-13,209,958
02/02/99,18:10:01,44,190,-13,211,958
02/02/99,18:15:01,43,181,-13,215,958
02/02/99,18:20:01,57,184,-13,219,958
02/02/99,18:25:01,47,181,-13,223,958
02/02/99,18:30:01,55,194,-13,227,958
02/02/99,18:35:01,68,183,-13,230,958
02/02/99,18:40:01,64,185,-13,232,958
02/02/99,18:45:01,77,173,-13,236,958
02/02/99,18:50:01,80,181,-13,240,958
02/02/99,18:55:01,61,174,-13,244,958
02/02/99,19:00:01,87,177,-13,246,958
02/02/99,19:05:01,78,176,-13,250,958
02/02/99,19:10:01,83,188,-13,252,958
02/02/99,19:15:01,73,176,-13,256,958
02/02/99,19:20:01,64,176,-11,260,958
02/02/99,19:25:01,,,,,
02/02/99,19:30:01,,,,,
02/02/99,19:35:01,,,,,
02/02/99,19:40:01,,,,,
02/02/99,19:45:01,,,,,
02/02/99,19:50:01,,,,,
02/02/99,19:55:01,,,,,
02/02/99,20:00:01,,,,,
02/02/99,20:05:01,,,,,
02/02/99,20:10:01,,,,,
02/02/99,20:15:01,,,,,
02/02/99,20:20:01,121,172,-11,293,958
02/02/99,20:25:01,113,163,-11,295,958
02/02/99,20:30:01,95,180,-11,299,958
02/02/99,20:35:01,103,169,-11,301,958
02/02/99,20:40:01,99,169,-11,303,958
02/02/99,20:45:01,,,,,
02/02/99,20:50:01,,,,,
02/02/99,20:55:01,,,,,
02/02/99,21:00:01,,,,,
02/02/99,21:05:01,,,,,
02/02/99,21:10:01,,,,,
02/02/99,21:15:01,,,,,
02/02/99,21:20:01,,,,,
02/02/99,21:25:01,,,,,
02/02/99,21:30:01,,,,,
02/02/99,21:35:01,,,,,
02/02/99,21:40:01,,,,,
02/02/99,21:45:01,,,,,
02/02/99,21:50:01,,,,,
02/02/99,21:55:01,,,,,
02/02/99,22:00:01,,,,,
02/02/99,22:05:01,,,,,
02/02/99,22:10:01,,,,,
02/02/99,22:15:01,,,,,
02/02/99,22:20:01,,,,,
02/02/99,22:25:01,,,,,
02/02/99,22:30:01,,,,,
02/02/99,22:35:01,,,,,
02/02/99,22:40:01,,,,,
02/02/99,22:45:01,,,,,
02/02/99,22:50:01,,,,,
02/02/99,22:55:01,,,,,
02/02/99,23:00:01,,,,,
02/02/99,23:05:01,,,,,
02/02/99,23:10:01,,,,,
02/02/99,23:15:01,,,,,
02/02/99,23:20:01,37,303,,446,
02/02/99,23:25:01,44,309,-11,451,958
02/02/99,23:30:01,29,352,-11,451,958
02/02/99,23:35:01,31,359,-11,455,958
02/02/99,23:40:01,22,352,-11,459,958
02/02/99,23:45:01,40,12,-11,461,958
02/02/99,23:50:01,44,357,-11,467,958
02/02/99,23:55:01,43,340,-11,469,958
02/03/99,00:00:01,36,331,-11,473,958
